FALCON 9 R/B (47307 NORAD) Tracking and Keplerian Element Data

This shows tracking and keplerian element data for the satellite.

Feedback or suggestion? Click here.




ElementValue
Catalog47307
NameFALCON 9 R/B
Epoch Orbit16
Epoch Day20.05722726
Epoch Year2021
RAAN330.3901
Inclination17.5334
Eccentricity0.8054091
Argument of Perigee184.8976
Mean Anonmoly153.8119
Mean Motion1.37546813
Decay Rate7.5E-06
L11 47307U 21001B 21020.05722726 .00000750 00000-0 84151-3 0 9995
L22 47307 17.5334 330.3901 8054091 184.8976 153.8119 1.37546813 168

Live tracking and technical data element details for FALCON 9 R/B (NORAD 47307). FALCON 9 R/B can be tracked NOW for your location showing map with azimuth and elevation plus other details from your city location.

Track the satellite on the map from your city or location and see movement details for azimuth, elevation, latitude, longitude, range, height, and movement on the map or in text.







IsCatalogInMostPopularTable: catalog: 47307, numindb: 7
Update: records affected: 1



GetName: 47307 FALCON 9 R/B

Hit Count: updated at: Fri, 22 Jan 2021 15:48:51 GMT